World > North America > United States > Wisconsin
Hourly regional weather for Mellen, WisconsinMellen, Wisconsin Regional Hourly Weather

Mellen, Wisconsin Regional Weather

regional weather mellen, wiHOURLY REGIONAL WEATHER FOR MELLEN, WI
Lat: 46.32N, Lon: 90.66W 
Web Search
Mellen Weather Warning NWS WEATHER ALERT FOR THE MELLEN, WI AREA - Issued: 352 AM CDT Wed Aug 4 2021 Mellen Weather Warning  

Our weather pages are very print friendly and they make great conversation starters.

Feedback


°F Click to change Mellen hourly weather to Imperial units.Click to change Mellen hourly weather to Metric units. °C
Mellen Weather Map
UTC Time: 8/4/2021, 15:27
Your Time:

Mellen, WI Regional Weather

Expires:202108041600;;964902
ASUS43 KMKX 041521
RWRWI 

WISCONSIN REGIONAL WEATHER ROUNDUP
NATIONAL WEATHER SERVICE MILWAUKEE/SULLIVAN WI
1000 AM CDT WED AUG 04 2021

NOTE: "FAIR" INDICATES FEW OR NO CLOUDS BELOW 12,000 FEET WITH NO
SIGNIFICANT WEATHER AND/OR OBSTRUCTIONS TO VISIBILITY.


WIZ003>005-009-010-017-018-041600-
NORTH CENTRAL WISCONSIN
  
CITY           SKY/WX    TMP DP  RH WIND       PRES   REMARKS
MANITOWISH WTR SUNNY     75  61  62 SW8       30.11S                  
ARBOR VITAE    SUNNY     77  63  62 W7        30.12S                  
WOODRUFF       SUNNY     77  63  62 W7        30.12S                  
RHINELANDER    SUNNY     73  61  65 W5        30.14S                  
EAGLE RIVER    SUNNY     73  60  65 W6        30.12S                  
LAND O LAKES   SUNNY     74  61  62 SW3       30.13S                  
PHILLIPS       SUNNY     72  63  73 SW5       30.12S                  
TOMAHAWK       SUNNY     74  62  65 CALM      30.13S                  
MEDFORD        SUNNY     70  63  77 SW3       30.14S                  
MERRILL        SUNNY     73  62  68 W5        30.13S                  
$$
 

SKY/WX - Weather  TMP - Temperature  DP - Dew Point  RH - Relative Humidity
WIND - Wind Direction/Speed PRES - Barometric Pressure VSB - Visibility
WCI - Wind Chill Index E13G22 Wind - East Wind 13 mph/Gusts of 22 mph